This demonstration page uses our WeatherBlox Daily Observations layout. Learn more.

Left ArrowRight Arrow

39.08367, -84.50855

Hourly Observations for May 20, 2017

Temp ( °F °C ) Dew Point ( °F °C ) Humidity (%) Winds ( mph kmh ) Pressure ( in mb ) Visibility ( mi km ) Precip ( " mm )
12:09 am 00:09 Clear with Mist and Fog 63 17.2 63 17.2 100 100 N N/A 30.03 1017 2.5 4.02335 N/A
12:16 am 00:16 Clear 63 17.2 63 17.2 100 100 N N/A 30.03 1017 9 14.48406 N/A
12:53 am 00:53 Clear with Mist and Fog 62 16.7 62 16.7 100 100 N N/A 30.05 1018 3 4.82802 N/A
12:56 am 00:56 Clear with Mist and Fog 62 16.7 62 16.7 100 100 N N/A 30.03 1017 1.75 2.816345 N/A
1:07 am 01:07 Mostly Clear with Mist and Fog 63 17.2 63 17.2 100 100 N N/A 30.03 1017 3 4.82802 N/A
1:10 am 01:10 Mostly Clear with Mist and Fog 62 16.7 62 16.7 100 100 N N/A 30.03 1017 1.25 2.011675 N/A
1:12 am 01:12 Mostly Cloudy with Mist and Fog 62 16.7 62 16.7 100 100 N N/A 30.03 1017 0.75 1.207005 N/A
1:33 am 01:33 Mostly Cloudy with Mist and Fog 63 17.2 63 17.2 100 100 N N/A 30.03 1017 2 3.21868 N/A
1:41 am 01:41 Cloudy with Mist and Fog 62 16.7 62 16.7 100 100 N N/A 30.03 1017 1 1.60934 N/A
1:53 am 01:53 Mostly Cloudy with Fog 63 17.2 63 17.2 100 100 N N/A 30.05 1018 0.25 0.402335 N/A
2:29 am 02:29 Cloudy with Mist and Fog 62 16.7 62 16.7 100 100 NE 3 6 30.03 1017 1 1.60934 N/A
2:31 am 02:31 Cloudy with Mist and Fog 62 16.7 62 16.7 100 100 NE 3 6 30.03 1017 2.5 4.02335 N/A
2:38 am 02:38 Cloudy with Mist and Fog 63 17.2 63 17.2 100 100 NE 3 6 30.03 1017 6 9.65604 N/A
2:53 am 02:53 Cloudy 63 17.2 63 17.2 100 100 NE 3 6 30.05 1018 7 11.26538 N/A
3:42 am 03:42 Cloudy with Mist and Fog 64 17.8 64 17.8 100 100 NE 7 11 30.03 1017 6 9.65604 N/A
3:53 am 03:53 Cloudy with Mist and Fog 64 17.8 64 17.8 100 100 NE 7 11 30.04 1017 5 8.0467 N/A
4:53 am 04:53 Cloudy with Mist and Fog 63 17.2 63 17.2 100 100 NNE 6 9 30.05 1018 4 6.43736 N/A
5:19 am 05:19 Cloudy with Mist and Fog 63 17.2 63 17.2 100 100 NNE 6 9 30.03 1017 2.5 4.02335 N/A
5:53 am 05:53 Cloudy with Mist and Fog 63 17.2 63 17.2 100 100 NNE 7 11 30.06 1018 2 3.21868 N/A
6:15 am 06:15 Cloudy with Mist and Fog 63 17.2 63 17.2 100 100 ENE 7 11 30.03 1017 1.75 2.816345 N/A
6:53 am 06:53 Cloudy with Mist and Fog 62 16.7 62 16.7 100 100 NE 7 11 30.06 1018 1.75 2.816345 N/A
7:17 am 07:17 Cloudy with Mist and Fog 62 16.7 62 16.7 100 100 NNE 7 11 30.03 1017 2 3.21868 N/A
7:46 am 07:46 Cloudy with Mist and Fog 62 16.7 62 16.7 100 100 NE 7 11 30.06 1018 3 4.82802 N/A
7:53 am 07:53 Cloudy with Mist and Fog 62 16.7 62 16.7 100 100 NNE 6 9 30.09 1019 3 4.82802 N/A
8:53 am 08:53 Cloudy with Light Rain 62 16.7 62 16.7 100 100 NE 9 15 30.09 1019 5 8.0467 N/A
9:26 am 09:26 Cloudy with Mist and Fog 62 16.7 62 16.7 100 100 NE 7 11 30.06 1018 5 8.0467 N/A
9:53 am 09:53 Cloudy with Mist and Fog 64 17.8 63 17.2 96 96 NNE 7 11 30.09 1019 5 8.0467 N/A
10:53 am 10:53 Cloudy with Mist and Fog 66 18.9 64 17.8 93 93 NNE 7 11 30.09 1019 6 9.65604 N/A
11:29 am 11:29 Cloudy 69 20.6 65 18.3 87 87 NNE 5 7 30.06 1018 7 11.26538 N/A
11:53 am 11:53 Cloudy 72 22.2 67 19.4 84 84 VRB 6 9 30.09 1019 7 11.26538 N/A
12:27 pm 12:27 Mostly Cloudy 74 23.3 68 20 82 82 N N/A 30.06 1018 8 12.87472 N/A
12:53 pm 12:53 Partly Cloudy 75 23.9 69 20.6 82 82 VRB 6 9 30.08 1019 9 14.48406 N/A
1:53 pm 13:53 Sunny 80 26.7 71 21.7 74 74 N N/A 30.06 1018 10 16.0934 N/A
2:53 pm 14:53 Mostly Cloudy with Nearby Thunderstorms 79 26.1 71 21.7 77 77 N N/A 30.04 1017 10 16.0934 N/A
3:02 pm 15:02 Mostly Cloudy with Light Thunderstorms 78 25.6 71 21.7 79 79 NNW 3 6 30.03 1017 9 14.48406 N/A
3:53 pm 15:53 Mostly Cloudy with Thunderstorms 74 23.3 74 23.3 100 100 ESE 7 11 30.03 1017 8 12.87472 0.03 0.762
4:27 pm 16:27 Partly Cloudy 76 24.4 74 23.3 94 94 E 5 7 30 1016 7 11.26538 N/A
4:53 pm 16:53 Mostly Sunny 78 25.6 72 22.2 82 82 ENE 6 9 29.98 1015 10 16.0934 N/A
5:53 pm 17:53 Sunny 79 26.1 72 22.2 79 79 NNE 7 11 29.98 1015 10 16.0934 N/A
6:53 pm 18:53 Mostly Sunny 78 25.6 73 22.8 85 85 ESE 8 13 29.98 1015 10 16.0934 N/A
7:53 pm 19:53 Partly Cloudy 74 23.3 68 20 82 82 ESE 8 13 29.99 1016 10 16.0934 N/A
8:53 pm 20:53 Mostly Cloudy 70 21.1 67 19.4 90 90 S 3 6 29.98 1015 10 16.0934 N/A
9:02 pm 21:02 Mostly Cloudy with Thunderstorms 70 21.1 68 20 93 93 SW 10 17 29.97 1015 10 16.0934 N/A
9:25 pm 21:25 Mostly Cloudy with Light Thunderstorms 72 22.2 66 18.9 82 82 WSW 17 28 30.03 1017 8 12.87472 N/A
9:38 pm 21:38 Mostly Cloudy with Heavy Thunderstorms 67 19.4 65 18.3 93 93 SSW 12 19 30.03 1017 3 4.82802 0.17 4.318
9:53 pm 21:53 Mostly Cloudy with Thunderstorms 66 18.9 65 18.3 96 96 ESE 7 11 30.05 1018 3 4.82802 0.26 6.604
10:49 pm 22:49 Cloudy with Nearby Thunderstorms 66 19 64 18 94 94 N N/A 30 1016 7 11.26538 0.1 2.54
10:53 pm 22:53 Cloudy with Rain 66 18.9 65 18.3 96 96 E 3 6 30.03 1017 7 11.26538 0.1 2.54
11:03 pm 23:03 Mostly Cloudy with Light Thunderstorms 65 18.3 65 18.3 100 100 SW 8 13 30.03 1017 7 11.26538 0.02 0.508
11:18 pm 23:18 Mostly Cloudy with Light Rain 66 18.9 65 18.3 96 96 VRB 7 11 30.03 1017 10 16.0934 0.02 0.508
11:53 pm 23:53 Cloudy with Light Rain 65 18.3 65 18.3 100 100 N N/A 30.01 1016 10 16.0934 0.03 0.762

Powered by AerisWeather